Regional Weather Roundup
Issued by NWS

Home | Current Version | Previous Version | Graphics & Text | Print | Product List | Glossary On
Versions: 1 2 3 4 5 6 7 8 9 10 11 12 13 14 15 16 17 18 19 20 21 22 23 24 25 26 27 28 29 30 31 32 33 34 35 36 37 38 39 40 41 42 43 44 45 46 47 48 49 50
015
ASUS43 KFSD 272102
RWRSD

WEATHER ROUNDUP FOR SOUTH DAKOTA
NATIONAL WEATHER SERVICE SIOUX FALLS SD
400 PM CDT WED JUL 27 2016

NOTE: "FAIR" INDICATES FEW OR NO CLOUDS BELOW 12,000 FEET WITH NO
SIGNIFICANT WEATHER AND/OR OBSTRUCTIONS TO VISIBILITY.


SDZ001>005-009-010-012>017-272200-
NORTHWEST AND NORTH CENTRAL SOUTH DAKOTA

CITY           SKY/WX    TMP DP  RH WIND       PRES   REMARKS
BUFFALO          N/A     68  61  78 E13       30.08S
FAITH            N/A     65  61  87 NE16      30.09F
MOBRIDGE       CLOUDY    83  60  45 NE12      30.05F
$$

SDZ012>016-024>037-041>051-057-063-072>074-272200-
SOUTHWEST AND SOUTH CENTRAL SOUTH DAKOTA

CITY           SKY/WX    TMP DP  RH WIND       PRES   REMARKS
RAPID CTY ARPT MOSUNNY   82  60  47 N16       30.14R
PIERRE         CLOUDY    86  60  41 NE13      30.01F
CUSTER         CLOUDY    68  58  70 NE12      30.26F
ELLSWORTH AFB  TSTM      78  62  57 N21       30.14
PHILIP         CLOUDY    84  59  42 NE8       30.07R
PINE RIDGE     MOSUNNY   84  64  50 NE13      30.12R
WINNER         FAIR      82  64  54 NE10      30.02S
$$

SDZ004>011-016>023-039-040-272200-
NORTHEAST SOUTH DAKOTA

CITY           SKY/WX    TMP DP  RH WIND       PRES   REMARKS
ABERDEEN       SUNNY     80  61  52 NE12      30.05S
WATERTOWN      MOSUNNY   81  62  52 N15       30.03R
BROOKINGS      MOSUNNY   78  64  61 N7        30.02R
SISSETON         N/A     79  59  50 N14       30.02R
$$

SDZ017-020-022-023-036>040-048>070-272200-
SOUTHEAST SOUTH DAKOTA

CITY           SKY/WX    TMP DP  RH WIND       PRES   REMARKS
SIOUX FALLS    MOSUNNY   82  66  58 N9        29.98F
HURON          SUNNY     83  63  50 NE13      30.00F
CHAMBERLAIN    PTSUNNY   86  65  49 NE7       30.02S
MITCHELL       MOSUNNY   85  62  46 NE10      29.99F
YANKTON        SUNNY     86  57  37 W7        29.96F
$$

ABBREVIATIONS USED IN REMARKS
   TC - TEMPERATURE IN CELSIUS
  WCI - WIND CHILL INDEX
   HX - HEAT INDEX
  VSB - VISIBILITY





USA.gov is the U.S. government's official web portal to all federal, state and local government web resources and services.